Time,TemperatureF,DewpointF,PressureIn,WindDirection,WindDirectionDegrees,WindSpeedMPH,WindSpeedGustMPH,Humidity,HourlyPrecipIn,Conditions,Clouds,dailyrainin,SoftwareType,DateUTC
2013-02-02 00:00:00,17.2,9.4,30.38,SW,217,4.0,5.0,71,0.00,,,0.00,WeatherCatV1.02B3,2013-02-02 05:00:00,
2013-02-02 00:01:00,17.1,9.3,30.39,SW,217,3.0,5.0,71,0.00,,,0.00,WeatherCatV1.02B3,2013-02-02 05:01:00,
2013-02-02 00:02:00,17.1,9.3,30.39,SSW,193,0.0,4.0,71,0.00,,,0.00,WeatherCatV1.02B3,2013-02-02 05:02:00,
2013-02-02 00:07:00,17.1,9.3,30.39,SSW,202,0.0,3.0,71,0.00,,,0.00,WeatherCatV1.02B3,2013-02-02 05:07:00,
2013-02-02 00:12:00,17.1,9.7,30.39,SSW,198,1.0,1.0,72,0.00,,,0.00,WeatherCatV1.02B3,2013-02-02 05:12:00,
2013-02-02 00:17:00,17.1,9.7,30.39,SE,126,0.0,4.0,72,0.00,,,0.00,WeatherCatV1.02B3,2013-02-02 05:17:00,
2013-02-02 00:22:00,17.0,9.6,30.39,SSW,211,2.0,5.0,72,0.00,,,0.00,WeatherCatV1.02B3,2013-02-02 05:22:00,
2013-02-02 00:27:00,17.0,9.6,30.39,SSW,192,2.0,3.0,72,0.00,,,0.00,WeatherCatV1.02B3,2013-02-02 05:27:00,
2013-02-02 00:32:00,17.0,9.9,30.39,SSW,201,3.0,4.0,73,0.00,,,0.00,WeatherCatV1.02B3,2013-02-02 05:32:00,
2013-02-02 00:37:00,17.0,9.6,30.38,SSW,198,4.0,5.0,72,0.00,,,0.00,WeatherCatV1.02B3,2013-02-02 05:37:00,
2013-02-02 00:42:00,16.9,9.5,30.39,SSW,192,0.0,3.0,72,0.00,,,0.00,WeatherCatV1.02B3,2013-02-02 05:42:00,
2013-02-02 00:47:00,17.0,9.6,30.38,ENE,63,0.0,6.0,72,0.00,,,0.00,WeatherCatV1.02B3,2013-02-02 05:47:00,
2013-02-02 00:52:00,16.9,9.5,30.37,SW,228,2.0,4.0,72,0.00,,,0.00,WeatherCatV1.02B3,2013-02-02 05:52:00,
2013-02-02 00:57:00,16.9,9.5,30.38,SSW,207,4.0,9.0,72,0.00,,,0.00,WeatherCatV1.02B3,2013-02-02 05:57:00,
2013-02-02 01:02:00,16.9,9.5,30.38,SSW,199,0.0,5.0,72,0.00,,,0.00,WeatherCatV1.02B3,2013-02-02 06:02:00,
2013-02-02 01:07:00,16.8,9.4,30.37,South,185,3.0,6.0,72,0.00,,,0.00,WeatherCatV1.02B3,2013-02-02 06:07:00,
2013-02-02 01:12:00,16.7,9.3,30.37,SE,133,0.0,5.0,72,0.00,,,0.00,WeatherCatV1.02B3,2013-02-02 06:12:00,
2013-02-02 01:17:00,16.7,9.3,30.37,South,190,0.0,2.0,72,0.00,,,0.00,WeatherCatV1.02B3,2013-02-02 06:17:00,
2013-02-02 01:22:00,16.7,9.3,30.37,SSW,192,3.0,6.0,72,0.00,,,0.00,WeatherCatV1.02B3,2013-02-02 06:22:00,
2013-02-02 01:27:00,16.7,9.3,30.37,South,188,4.0,4.0,72,0.00,,,0.00,WeatherCatV1.02B3,2013-02-02 06:27:00,
2013-02-02 01:32:00,16.7,9.3,30.36,SSW,213,6.0,7.0,72,0.00,,,0.00,WeatherCatV1.02B3,2013-02-02 06:32:00,
2013-02-02 01:37:00,16.7,9.0,30.36,SSW,200,0.0,5.0,71,0.00,,,0.00,WeatherCatV1.02B3,2013-02-02 06:37:00,
2013-02-02 01:42:00,16.7,9.3,30.36,South,189,2.0,3.0,72,0.00,,,0.00,WeatherCatV1.02B3,2013-02-02 06:42:00,
2013-02-02 01:47:00,16.7,9.3,30.36,SSW,205,3.0,3.0,72,0.00,,,0.00,WeatherCatV1.02B3,2013-02-02 06:47:00,
2013-02-02 01:52:00,16.7,9.3,30.36,South,184,2.0,4.0,72,0.00,,,0.00,WeatherCatV1.02B3,2013-02-02 06:52:00,
2013-02-02 01:57:00,16.6,9.2,30.36,SSE,159,0.0,5.0,72,0.00,,,0.00,WeatherCatV1.02B3,2013-02-02 06:57:00,
2013-02-02 02:02:00,16.6,9.2,30.36,SE,127,0.0,3.0,72,0.00,,,0.00,WeatherCatV1.02B3,2013-02-02 07:02:00,
2013-02-02 02:07:00,16.6,9.5,30.35,SSW,205,0.0,5.0,73,0.00,,,0.00,WeatherCatV1.02B3,2013-02-02 07:07:00,
2013-02-02 02:12:00,16.6,9.5,30.35,SSE,165,0.0,4.0,73,0.00,,,0.00,WeatherCatV1.02B3,2013-02-02 07:12:00,
2013-02-02 02:17:00,16.6,9.5,30.36,South,190,0.0,7.0,73,0.00,,,0.00,WeatherCatV1.02B3,2013-02-02 07:17:00,
2013-02-02 02:22:00,16.6,9.5,30.36,SSW,194,2.0,4.0,73,0.00,,,0.00,WeatherCatV1.02B3,2013-02-02 07:22:00,
2013-02-02 02:27:00,16.6,9.5,30.35,SSE,161,0.0,0.0,73,0.00,,,0.00,WeatherCatV1.02B3,2013-02-02 07:27:00,
2013-02-02 02:32:00,16.6,9.5,30.35,SW,222,0.0,5.0,73,0.00,,,0.00,WeatherCatV1.02B3,2013-02-02 07:32:00,
2013-02-02 02:37:00,16.6,9.5,30.36,South,173,1.0,4.0,73,0.00,,,0.00,WeatherCatV1.02B3,2013-02-02 07:37:00,
2013-02-02 02:42:00,16.6,9.2,30.36,SE,130,0.0,3.0,72,0.00,,,0.00,WeatherCatV1.02B3,2013-02-02 07:42:00,
2013-02-02 02:47:00,16.6,9.2,30.35,South,184,1.0,2.0,72,0.00,,,0.00,WeatherCatV1.02B3,2013-02-02 07:47:00,
2013-02-02 02:52:00,16.6,9.2,30.35,SSW,200,0.0,1.0,72,0.00,,,0.00,WeatherCatV1.02B3,2013-02-02 07:52:00,
2013-02-02 02:57:00,16.7,9.3,30.35,SSW,201,0.0,4.0,72,0.00,,,0.00,WeatherCatV1.02B3,2013-02-02 07:57:00,
2013-02-02 03:02:00,16.7,9.3,30.35,SSW,196,2.0,5.0,72,0.00,,,0.00,WeatherCatV1.02B3,2013-02-02 08:02:00,
2013-02-02 03:07:00,16.7,9.3,30.35,SE,124,0.0,0.0,72,0.00,,,0.00,WeatherCatV1.02B3,2013-02-02 08:07:00,
2013-02-02 03:08:00,16.7,9.3,30.35,SE,124,0.0,1.0,72,0.00,,,0.00,WeatherCatV1.02B3,2013-02-02 08:08:00,
2013-02-02 03:13:00,16.7,9.3,30.35,SSW,200,2.0,4.0,72,0.00,,,0.00,WeatherCatV1.02B3,2013-02-02 08:13:00,
2013-02-02 03:18:00,16.7,9.3,30.35,SW,233,4.0,6.0,72,0.00,,,0.00,WeatherCatV1.02B3,2013-02-02 08:18:00,
2013-02-02 03:23:00,16.7,9.3,30.35,South,171,0.0,2.0,72,0.00,,,0.00,WeatherCatV1.02B3,2013-02-02 08:23:00,
2013-02-02 03:28:00,16.7,9.3,30.35,SW,216,3.0,4.0,72,0.00,,,0.00,WeatherCatV1.02B3,2013-02-02 08:28:00,
2013-02-02 03:33:00,16.6,9.2,30.34,SSW,200,0.0,3.0,72,0.00,,,0.00,WeatherCatV1.02B3,2013-02-02 08:33:00,
2013-02-02 03:38:00,16.7,9.3,30.34,SSW,200,0.0,2.0,72,0.00,,,0.00,WeatherCatV1.02B3,2013-02-02 08:38:00,
2013-02-02 03:43:00,16.7,9.3,30.34,SE,132,0.0,4.0,72,0.00,,,0.00,WeatherCatV1.02B3,2013-02-02 08:43:00,
2013-02-02 03:48:00,16.6,9.2,30.33,ESE,118,0.0,3.0,72,0.00,,,0.00,WeatherCatV1.02B3,2013-02-02 08:48:00,
2013-02-02 03:53:00,16.6,9.2,30.33,SSW,203,5.0,5.0,72,0.00,,,0.00,WeatherCatV1.02B3,2013-02-02 08:53:00,
2013-02-02 03:58:00,16.6,9.5,30.33,SSE,165,0.0,4.0,73,0.00,,,0.00,WeatherCatV1.02B3,2013-02-02 08:58:00,
2013-02-02 04:03:00,16.5,9.4,30.33,SSW,207,2.0,2.0,73,0.00,,,0.00,WeatherCatV1.02B3,2013-02-02 09:03:00,
2013-02-02 04:08:00,16.5,9.4,30.33,SSW,209,0.0,3.0,73,0.00,,,0.00,WeatherCatV1.02B3,2013-02-02 09:08:00,
2013-02-02 04:13:00,16.5,9.4,30.33,SSW,195,0.0,4.0,73,0.00,,,0.00,WeatherCatV1.02B3,2013-02-02 09:13:00,
2013-02-02 04:18:00,16.5,9.4,30.33,South,180,0.0,3.0,73,0.00,,,0.00,WeatherCatV1.02B3,2013-02-02 09:18:00,
2013-02-02 04:23:00,16.5,9.4,30.32,SSW,197,1.0,4.0,73,0.00,,,0.00,WeatherCatV1.02B3,2013-02-02 09:23:00,
2013-02-02 04:28:00,16.5,9.1,30.33,South,182,0.0,2.0,72,0.00,,,0.00,WeatherCatV1.02B3,2013-02-02 09:28:00,
2013-02-02 04:33:00,16.5,9.1,30.32,ESE,123,0.0,0.0,72,0.00,,,0.00,WeatherCatV1.02B3,2013-02-02 09:33:00,
2013-02-02 04:38:00,16.5,9.1,30.32,SSW,198,2.0,2.0,72,0.00,,,0.00,WeatherCatV1.02B3,2013-02-02 09:38:00,
2013-02-02 04:43:00,16.5,9.1,30.32,SSW,209,0.0,6.0,72,0.00,,,0.00,WeatherCatV1.02B3,2013-02-02 09:43:00,
2013-02-02 04:48:00,16.5,8.8,30.32,SSW,203,2.0,5.0,71,0.00,,,0.00,WeatherCatV1.02B3,2013-02-02 09:48:00,
2013-02-02 04:53:00,16.5,8.8,30.32,South,181,0.0,0.0,71,0.00,,,0.00,WeatherCatV1.02B3,2013-02-02 09:53:00,
2013-02-02 04:58:00,16.5,8.8,30.32,SSW,197,0.0,5.0,71,0.00,,,0.00,WeatherCatV1.02B3,2013-02-02 09:58:00,
2013-02-02 05:03:00,16.4,8.7,30.31,SW,215,5.0,5.0,71,0.00,,,0.00,WeatherCatV1.02B3,2013-02-02 10:03:00,
2013-02-02 05:08:00,16.4,8.7,30.31,SSW,206,4.0,6.0,71,0.00,,,0.00,WeatherCatV1.02B3,2013-02-02 10:08:00,
2013-02-02 05:13:00,16.4,8.7,30.31,SSE,164,2.0,6.0,71,0.00,,,0.00,WeatherCatV1.02B3,2013-02-02 10:13:00,
2013-02-02 05:18:00,16.4,8.7,30.31,SW,227,0.0,2.0,71,0.00,,,0.00,WeatherCatV1.02B3,2013-02-02 10:18:00,
2013-02-02 05:23:00,16.4,8.7,30.31,SE,129,1.0,1.0,71,0.00,,,0.00,WeatherCatV1.02B3,2013-02-02 10:23:00,
2013-02-02 05:28:00,16.3,8.6,30.31,SSW,200,0.0,2.0,71,0.00,,,0.00,WeatherCatV1.02B3,2013-02-02 10:28:00,
2013-02-02 05:33:00,16.3,8.6,30.31,ESE,120,1.0,4.0,71,0.00,,,0.00,WeatherCatV1.02B3,2013-02-02 10:33:00,
2013-02-02 05:38:00,16.3,8.6,30.30,SSE,153,2.0,7.0,71,0.00,,,0.00,WeatherCatV1.02B3,2013-02-02 10:38:00,
2013-02-02 05:43:00,16.3,8.6,30.30,ESE,118,0.0,4.0,71,0.00,,,0.00,WeatherCatV1.02B3,2013-02-02 10:43:00,
2013-02-02 05:48:00,16.3,8.6,30.30,SSE,155,0.0,6.0,71,0.00,,,0.00,WeatherCatV1.02B3,2013-02-02 10:48:00,
2013-02-02 05:53:00,16.2,8.2,30.30,SE,134,0.0,5.0,70,0.00,,,0.00,WeatherCatV1.02B3,2013-02-02 10:53:00,
2013-02-02 05:58:00,16.2,8.5,30.30,SSW,194,1.0,3.0,71,0.00,,,0.00,WeatherCatV1.02B3,2013-02-02 10:58:00,
2013-02-02 06:03:00,16.2,8.5,30.30,South,178,0.0,0.0,71,0.00,,,0.00,WeatherCatV1.02B3,2013-02-02 11:03:00,
2013-02-02 06:08:00,16.2,8.8,30.30,SE,142,3.0,3.0,72,0.00,,,0.00,WeatherCatV1.02B3,2013-02-02 11:08:00,
2013-02-02 06:13:00,16.1,8.4,30.30,SE,128,4.0,9.0,71,0.00,,,0.00,WeatherCatV1.02B3,2013-02-02 11:13:00,
2013-02-02 06:18:00,16.1,8.7,30.29,SE,126,0.0,3.0,72,0.00,,,0.00,WeatherCatV1.02B3,2013-02-02 11:18:00,
2013-02-02 06:23:00,16.1,8.7,30.29,SSE,150,0.0,5.0,72,0.00,,,0.00,WeatherCatV1.02B3,2013-02-02 11:23:00,
2013-02-02 06:28:00,16.0,8.6,30.29,South,181,0.0,4.0,72,0.00,,,0.00,WeatherCatV1.02B3,2013-02-02 11:28:00,
2013-02-02 06:33:00,16.0,8.9,30.29,SE,130,0.0,3.0,73,0.00,,,0.00,WeatherCatV1.02B3,2013-02-02 11:33:00,
2013-02-02 06:38:00,16.0,8.9,30.29,SW,218,0.0,4.0,73,0.00,,,0.00,WeatherCatV1.02B3,2013-02-02 11:38:00,
2013-02-02 06:43:00,15.9,8.8,30.29,SE,126,0.0,2.0,73,0.00,,,0.00,WeatherCatV1.02B3,2013-02-02 11:43:00,
2013-02-02 06:48:00,15.9,9.1,30.29,SE,132,3.0,5.0,74,0.00,,,0.00,WeatherCatV1.02B3,2013-02-02 11:48:00,
2013-02-02 06:53:00,15.9,9.1,30.28,SSE,157,0.0,4.0,74,0.00,,,0.00,WeatherCatV1.02B3,2013-02-02 11:53:00,
2013-02-02 06:58:00,16.0,9.2,30.28,ESE,119,2.0,4.0,74,0.00,,,0.00,WeatherCatV1.02B3,2013-02-02 11:58:00,
2013-02-02 07:03:00,15.9,9.4,30.28,SE,144,3.0,7.0,75,0.00,,,0.00,WeatherCatV1.02B3,2013-02-02 12:03:00,
2013-02-02 07:08:00,15.7,9.2,30.28,ESE,121,3.0,3.0,75,0.00,,,0.00,WeatherCatV1.02B3,2013-02-02 12:08:00,
2013-02-02 07:13:00,15.6,9.1,30.28,ESE,118,0.0,9.0,75,0.00,,,0.00,WeatherCatV1.02B3,2013-02-02 12:13:00,
2013-02-02 07:18:00,15.7,9.5,30.28,ESE,117,5.0,6.0,76,0.00,,,0.00,WeatherCatV1.02B3,2013-02-02 12:18:00,
2013-02-02 07:23:00,15.6,9.4,30.28,SE,126,2.0,3.0,76,0.00,,,0.00,WeatherCatV1.02B3,2013-02-02 12:23:00,
2013-02-02 07:28:00,15.5,9.6,30.28,SE,134,0.0,2.0,77,0.00,,,0.00,WeatherCatV1.02B3,2013-02-02 12:28:00,
2013-02-02 07:33:00,15.5,9.6,30.28,SE,140,2.0,3.0,77,0.00,,,0.00,WeatherCatV1.02B3,2013-02-02 12:33:00,
2013-02-02 07:38:00,15.4,9.8,30.28,SE,133,0.0,0.0,78,0.00,,,0.00,WeatherCatV1.02B3,2013-02-02 12:38:00,
2013-02-02 07:43:00,15.4,9.8,30.28,SE,125,3.0,3.0,78,0.00,,,0.00,WeatherCatV1.02B3,2013-02-02 12:43:00,
2013-02-02 07:48:00,15.4,9.8,30.27,SE,142,1.0,6.0,78,0.00,,,0.00,WeatherCatV1.02B3,2013-02-02 12:48:00,
2013-02-02 07:53:00,15.4,10.1,30.28,ESE,109,2.0,3.0,79,0.00,,,0.00,WeatherCatV1.02B3,2013-02-02 12:53:00,
2013-02-02 07:58:00,15.3,10.0,30.27,ESE,104,0.0,3.0,79,0.00,,,0.00,WeatherCatV1.02B3,2013-02-02 12:58:00,
2013-02-02 08:03:00,15.3,10.3,30.27,SE,141,1.0,5.0,80,0.00,,,0.00,WeatherCatV1.02B3,2013-02-02 13:03:00,
2013-02-02 08:09:00,15.3,10.3,30.27,ESE,123,2.0,2.0,80,0.00,,,0.00,WeatherCatV1.02B3,2013-02-02 13:09:00,
2013-02-02 08:14:00,15.2,10.4,30.27,ESE,114,0.0,5.0,81,0.00,,,0.00,WeatherCatV1.02B3,2013-02-02 13:14:00,
2013-02-02 08:19:00,15.3,10.5,30.26,SE,145,4.0,6.0,81,0.00,,,0.00,WeatherCatV1.02B3,2013-02-02 13:19:00,
2013-02-02 08:24:00,15.3,10.8,30.26,South,175,0.0,6.0,82,0.00,,,0.00,WeatherCatV1.02B3,2013-02-02 13:24:00,
2013-02-02 08:29:00,15.3,10.8,30.26,SE,143,0.0,5.0,82,0.00,,,0.00,WeatherCatV1.02B3,2013-02-02 13:29:00,
2013-02-02 08:34:00,15.3,10.8,30.26,ESE,115,7.0,7.0,82,0.00,,,0.00,WeatherCatV1.02B3,2013-02-02 13:34:00,
2013-02-02 08:39:00,15.3,11.1,30.25,SE,128,0.0,3.0,83,0.00,,,0.00,WeatherCatV1.02B3,2013-02-02 13:39:00,
2013-02-02 08:44:00,15.4,11.2,30.25,SSE,168,0.0,4.0,83,0.00,,,0.00,WeatherCatV1.02B3,2013-02-02 13:44:00,
2013-02-02 08:49:00,15.5,11.3,30.25,South,191,0.0,3.0,83,0.00,,,0.00,WeatherCatV1.02B3,2013-02-02 13:49:00,
2013-02-02 08:54:00,15.5,11.3,30.25,SE,132,2.0,9.0,83,0.00,,,0.00,WeatherCatV1.02B3,2013-02-02 13:54:00,
2013-02-02 08:59:00,15.6,11.4,30.25,SE,137,4.0,4.0,83,0.00,,,0.00,WeatherCatV1.02B3,2013-02-02 13:59:00,
2013-02-02 09:04:00,15.7,11.5,30.25,SW,214,0.0,6.0,83,0.00,,,0.00,WeatherCatV1.02B3,2013-02-02 14:04:00,
2013-02-02 09:09:00,15.7,11.5,30.25,SE,134,0.0,5.0,83,0.00,,,0.00,WeatherCatV1.02B3,2013-02-02 14:09:00,
2013-02-02 09:14:00,15.7,11.5,30.24,SE,138,0.0,6.0,83,0.00,,,0.00,WeatherCatV1.02B3,2013-02-02 14:14:00,
2013-02-02 09:19:00,15.8,11.6,30.24,SE,137,0.0,3.0,83,0.00,,,0.00,WeatherCatV1.02B3,2013-02-02 14:19:00,
2013-02-02 09:24:00,15.9,11.7,30.24,ESE,121,2.0,4.0,83,0.00,,,0.00,WeatherCatV1.02B3,2013-02-02 14:24:00,
2013-02-02 09:29:00,16.0,12.0,30.24,SSE,154,0.0,11.0,84,0.00,,,0.00,WeatherCatV1.02B3,2013-02-02 14:29:00,
2013-02-02 09:34:00,16.0,11.8,30.23,ESE,122,0.0,6.0,83,0.00,,,0.00,WeatherCatV1.02B3,2013-02-02 14:34:00,
2013-02-02 09:39:00,16.2,12.0,30.24,SE,127,2.0,3.0,83,0.00,,,0.00,WeatherCatV1.02B3,2013-02-02 14:39:00,
2013-02-02 09:44:00,16.3,12.3,30.23,ESE,112,0.0,0.0,84,0.00,,,0.00,WeatherCatV1.02B3,2013-02-02 14:44:00,
2013-02-02 09:49:00,16.3,12.3,30.23,ESE,118,0.0,4.0,84,0.00,,,0.00,WeatherCatV1.02B3,2013-02-02 14:49:00,
2013-02-02 09:54:00,16.5,12.5,30.23,SE,142,0.0,3.0,84,0.00,,,0.00,WeatherCatV1.02B3,2013-02-02 14:54:00,
2013-02-02 09:59:00,16.6,12.4,30.23,ESE,123,1.0,1.0,83,0.00,,,0.00,WeatherCatV1.02B3,2013-02-02 14:59:00,
2013-02-02 10:04:00,16.8,12.8,30.23,SE,130,5.0,6.0,84,0.00,,,0.00,WeatherCatV1.02B3,2013-02-02 15:04:00,
2013-02-02 10:09:00,16.9,12.6,30.23,ESE,110,0.0,4.0,83,0.00,,,0.00,WeatherCatV1.02B3,2013-02-02 15:09:00,
2013-02-02 10:14:00,17.2,12.9,30.23,SSE,149,0.0,2.0,83,0.00,,,0.00,WeatherCatV1.02B3,2013-02-02 15:14:00,
2013-02-02 10:19:00,17.3,13.0,30.23,SSW,213,1.0,6.0,83,0.00,,,0.00,WeatherCatV1.02B3,2013-02-02 15:19:00,
2013-02-02 10:24:00,17.4,12.9,30.22,SW,234,3.0,3.0,82,0.00,,,0.00,WeatherCatV1.02B3,2013-02-02 15:24:00,
2013-02-02 10:29:00,17.5,13.0,30.22,SSW,200,0.0,3.0,82,0.00,,,0.00,WeatherCatV1.02B3,2013-02-02 15:29:00,
2013-02-02 10:34:00,17.5,13.0,30.22,SSE,163,0.0,0.0,82,0.00,,,0.00,WeatherCatV1.02B3,2013-02-02 15:34:00,
2013-02-02 10:39:00,17.7,13.2,30.22,SE,135,4.0,6.0,82,0.00,,,0.00,WeatherCatV1.02B3,2013-02-02 15:39:00,
2013-02-02 10:44:00,17.7,13.2,30.21,SSE,148,0.0,6.0,82,0.00,,,0.00,WeatherCatV1.02B3,2013-02-02 15:44:00,
2013-02-02 10:49:00,17.7,13.2,30.21,ESE,117,0.0,5.0,82,0.00,,,0.00,WeatherCatV1.02B3,2013-02-02 15:49:00,
2013-02-02 10:54:00,17.6,13.1,30.21,SE,131,1.0,6.0,82,0.00,,,0.00,WeatherCatV1.02B3,2013-02-02 15:54:00,
2013-02-02 10:59:00,17.7,13.2,30.21,SE,134,5.0,10.0,82,0.00,,,0.00,WeatherCatV1.02B3,2013-02-02 15:59:00,
2013-02-02 11:04:00,17.7,13.2,30.21,ESE,119,3.0,4.0,82,0.00,,,0.00,WeatherCatV1.02B3,2013-02-02 16:04:00,
2013-02-02 11:09:00,17.7,13.2,30.21,ESE,122,4.0,4.0,82,0.00,,,0.00,WeatherCatV1.02B3,2013-02-02 16:09:00,
2013-02-02 11:14:00,17.9,13.6,30.20,SSE,157,0.0,5.0,83,0.00,,,0.00,WeatherCatV1.02B3,2013-02-02 16:14:00,
2013-02-02 11:20:00,18.0,13.7,30.20,SSW,198,5.0,9.0,83,0.00,,,0.00,WeatherCatV1.02B3,2013-02-02 16:20:00,
2013-02-02 11:25:00,18.2,13.9,30.20,SE,125,4.0,4.0,83,0.00,,,0.00,WeatherCatV1.02B3,2013-02-02 16:25:00,
2013-02-02 11:30:00,18.3,14.0,30.19,ESE,103,3.0,10.0,83,0.00,,,0.00,WeatherCatV1.02B3,2013-02-02 16:30:00,
2013-02-02 11:35:00,18.5,14.2,30.19,SE,136,0.0,4.0,83,0.00,,,0.00,WeatherCatV1.02B3,2013-02-02 16:35:00,
2013-02-02 11:40:00,18.7,14.4,30.19,ESE,115,0.0,2.0,83,0.00,,,0.00,WeatherCatV1.02B3,2013-02-02 16:40:00,
2013-02-02 11:45:00,18.9,14.6,30.18,SE,139,0.0,4.0,83,0.00,,,0.00,WeatherCatV1.02B3,2013-02-02 16:45:00,
2013-02-02 11:50:00,18.9,14.3,30.18,South,171,0.0,3.0,82,0.00,,,0.00,WeatherCatV1.02B3,2013-02-02 16:50:00,
2013-02-02 11:55:00,18.9,14.3,30.18,SE,136,1.0,6.0,82,0.00,,,0.00,WeatherCatV1.02B3,2013-02-02 16:55:00,
2013-02-02 12:00:00,18.9,14.3,30.17,SSE,156,1.0,5.0,82,0.00,,,0.00,WeatherCatV1.02B3,2013-02-02 17:00:00,
2013-02-02 12:05:00,18.8,14.2,30.17,SE,132,3.0,6.0,82,0.00,,,0.00,WeatherCatV1.02B3,2013-02-02 17:05:00,
2013-02-02 12:10:00,18.8,14.2,30.17,WSW,249,1.0,9.0,82,0.00,,,0.00,WeatherCatV1.02B3,2013-02-02 17:10:00,
2013-02-02 12:15:00,18.9,14.6,30.17,ESE,111,3.0,5.0,83,0.00,,,0.00,WeatherCatV1.02B3,2013-02-02 17:15:00,
2013-02-02 12:20:00,18.9,14.6,30.16,SE,125,0.0,5.0,83,0.00,,,0.00,WeatherCatV1.02B3,2013-02-02 17:20:00,
2013-02-02 12:25:00,19.0,14.7,30.16,SE,140,0.0,0.0,83,0.00,,,0.00,WeatherCatV1.02B3,2013-02-02 17:25:00,
2013-02-02 12:30:00,19.2,14.9,30.16,South,187,0.0,2.0,83,0.00,,,0.00,WeatherCatV1.02B3,2013-02-02 17:30:00,
2013-02-02 12:35:00,19.4,15.1,30.15,ESE,117,5.0,5.0,83,0.00,,,0.00,WeatherCatV1.02B3,2013-02-02 17:35:00,
2013-02-02 12:40:00,19.2,14.9,30.15,ESE,123,6.0,6.0,83,0.00,,,0.00,WeatherCatV1.02B3,2013-02-02 17:40:00,
2013-02-02 12:45:00,19.3,15.0,30.15,South,175,1.0,3.0,83,0.00,,,0.00,WeatherCatV1.02B3,2013-02-02 17:45:00,
2013-02-02 12:50:00,19.3,15.0,30.14,SE,138,0.0,4.0,83,0.00,,,0.00,WeatherCatV1.02B3,2013-02-02 17:50:00,
2013-02-02 12:55:00,19.4,15.4,30.14,SE,140,1.0,2.0,84,0.00,,,0.00,WeatherCatV1.02B3,2013-02-02 17:55:00,
2013-02-02 13:00:00,19.6,15.6,30.14,South,180,0.0,0.0,84,0.00,,,0.00,WeatherCatV1.02B3,2013-02-02 18:00:00,
2013-02-02 13:05:00,19.6,15.6,30.13,SE,126,0.0,3.0,84,0.00,,,0.00,WeatherCatV1.02B3,2013-02-02 18:05:00,
2013-02-02 13:10:00,19.6,15.6,30.13,SE,130,1.0,6.0,84,0.00,,,0.00,WeatherCatV1.02B3,2013-02-02 18:10:00,
2013-02-02 13:15:00,19.7,15.7,30.13,SSE,154,0.0,0.0,84,0.00,,,0.00,WeatherCatV1.02B3,2013-02-02 18:15:00,
2013-02-02 13:20:00,19.8,15.8,30.12,South,180,0.0,3.0,84,0.00,,,0.00,WeatherCatV1.02B3,2013-02-02 18:20:00,
2013-02-02 13:25:00,19.9,15.9,30.12,South,171,0.0,4.0,84,0.00,,,0.00,WeatherCatV1.02B3,2013-02-02 18:25:00,
2013-02-02 13:30:00,19.9,15.9,30.12,ESE,117,0.0,0.0,84,0.00,,,0.00,WeatherCatV1.02B3,2013-02-02 18:30:00,
2013-02-02 13:35:00,19.9,15.9,30.12,ESE,117,0.0,1.0,84,0.00,,,0.00,WeatherCatV1.02B3,2013-02-02 18:35:00,
2013-02-02 13:40:00,19.9,15.9,30.11,SW,222,0.0,1.0,84,0.00,,,0.00,WeatherCatV1.02B3,2013-02-02 18:40:00,
2013-02-02 13:45:00,19.9,15.9,30.11,East,81,0.0,4.0,84,0.00,,,0.00,WeatherCatV1.02B3,2013-02-02 18:45:00,
2013-02-02 13:50:00,20.0,16.2,30.11,SE,140,2.0,3.0,85,0.00,,,0.00,WeatherCatV1.02B3,2013-02-02 18:50:00,
2013-02-02 13:56:00,20.1,16.3,30.11,SE,146,0.0,5.0,85,0.00,,,0.00,WeatherCatV1.02B3,2013-02-02 18:56:00,
2013-02-02 14:01:00,20.1,16.3,30.11,ENE,71,0.0,0.0,85,0.00,,,0.00,WeatherCatV1.02B3,2013-02-02 19:01:00,
2013-02-02 14:06:00,20.3,16.5,30.10,SW,222,0.0,0.0,85,0.00,,,0.00,WeatherCatV1.02B3,2013-02-02 19:06:00,
2013-02-02 14:11:00,20.5,16.7,30.10,SSW,201,3.0,3.0,85,0.00,,,0.00,WeatherCatV1.02B3,2013-02-02 19:11:00,
2013-02-02 14:16:00,20.7,16.9,30.10,ESE,111,4.0,5.0,85,0.00,,,0.00,WeatherCatV1.02B3,2013-02-02 19:16:00,
2013-02-02 14:21:00,20.7,16.9,30.10,SE,146,2.0,5.0,85,0.00,,,0.00,WeatherCatV1.02B3,2013-02-02 19:21:00,
2013-02-02 14:26:00,20.7,16.9,30.10,ESE,119,2.0,2.0,85,0.00,,,0.00,WeatherCatV1.02B3,2013-02-02 19:26:00,
2013-02-02 14:31:00,20.7,16.9,30.10,SE,132,0.0,3.0,85,0.00,,,0.00,WeatherCatV1.02B3,2013-02-02 19:31:00,
2013-02-02 14:36:00,20.9,17.1,30.10,ESE,103,2.0,2.0,85,0.00,,,0.00,WeatherCatV1.02B3,2013-02-02 19:36:00,
2013-02-02 14:41:00,21.0,17.2,30.10,SE,131,0.0,4.0,85,0.00,,,0.00,WeatherCatV1.02B3,2013-02-02 19:41:00,
2013-02-02 14:46:00,21.2,17.4,30.10,South,190,0.0,6.0,85,0.00,,,0.00,WeatherCatV1.02B3,2013-02-02 19:46:00,
2013-02-02 14:51:00,21.3,17.5,30.09,SE,125,0.0,4.0,85,0.00,,,0.00,WeatherCatV1.02B3,2013-02-02 19:51:00,
2013-02-02 14:56:00,21.4,17.6,30.09,South,173,0.0,4.0,85,0.00,,,0.00,WeatherCatV1.02B3,2013-02-02 19:56:00,
2013-02-02 15:01:00,21.5,17.4,30.09,SE,130,2.0,5.0,84,0.00,,,0.00,WeatherCatV1.02B3,2013-02-02 20:01:00,
2013-02-02 15:06:00,21.7,17.9,30.10,SE,142,0.0,0.0,85,0.00,,,0.00,WeatherCatV1.02B3,2013-02-02 20:06:00,
2013-02-02 15:11:00,21.9,17.8,30.09,ESE,121,0.0,1.0,84,0.00,,,0.00,WeatherCatV1.02B3,2013-02-02 20:11:00,
2013-02-02 15:16:00,21.9,17.8,30.09,ESE,110,0.0,0.0,84,0.00,,,0.00,WeatherCatV1.02B3,2013-02-02 20:16:00,
2013-02-02 15:21:00,22.0,17.9,30.09,SE,129,0.0,6.0,84,0.00,,,0.00,WeatherCatV1.02B3,2013-02-02 20:21:00,
2013-02-02 15:26:00,22.1,18.0,30.09,ESE,107,4.0,4.0,84,0.00,,,0.00,WeatherCatV1.02B3,2013-02-02 20:26:00,
2013-02-02 15:31:00,22.2,18.1,30.09,SE,130,0.0,2.0,84,0.00,,,0.00,WeatherCatV1.02B3,2013-02-02 20:31:00,
2013-02-02 15:36:00,22.4,18.6,30.09,SE,134,1.0,3.0,85,0.00,,,0.00,WeatherCatV1.02B3,2013-02-02 20:36:00,
2013-02-02 15:41:00,22.5,18.7,30.09,SE,135,0.0,0.0,85,0.00,,,0.00,WeatherCatV1.02B3,2013-02-02 20:41:00,
2013-02-02 15:46:00,22.4,18.3,30.09,SE,130,2.0,4.0,84,0.00,,,0.00,WeatherCatV1.02B3,2013-02-02 20:46:00,
2013-02-02 15:51:00,22.5,18.4,30.09,SE,125,3.0,4.0,84,0.00,,,0.00,WeatherCatV1.02B3,2013-02-02 20:51:00,
2013-02-02 15:56:00,22.5,18.4,30.08,ESE,115,0.0,2.0,84,0.00,,,0.00,WeatherCatV1.02B3,2013-02-02 20:56:00,
2013-02-02 16:01:00,22.6,18.5,30.08,SE,128,2.0,2.0,84,0.00,,,0.00,WeatherCatV1.02B3,2013-02-02 21:01:00,
2013-02-02 16:06:00,22.6,18.5,30.08,SW,218,1.0,1.0,84,0.00,,,0.00,WeatherCatV1.02B3,2013-02-02 21:06:00,
2013-02-02 16:11:00,22.7,18.6,30.08,SSW,213,3.0,3.0,84,0.00,,,0.00,WeatherCatV1.02B3,2013-02-02 21:11:00,
2013-02-02 16:16:00,22.8,18.7,30.08,SE,127,1.0,2.0,84,0.00,,,0.00,WeatherCatV1.02B3,2013-02-02 21:16:00,
2013-02-02 16:21:00,22.8,18.7,30.08,SSW,209,0.0,0.0,84,0.00,,,0.00,WeatherCatV1.02B3,2013-02-02 21:21:00,
2013-02-02 16:26:00,22.9,18.8,30.08,ESE,119,0.0,3.0,84,0.00,,,0.00,WeatherCatV1.02B3,2013-02-02 21:26:00,
2013-02-02 16:31:00,22.9,18.8,30.08,SE,144,0.0,0.0,84,0.00,,,0.00,WeatherCatV1.02B3,2013-02-02 21:31:00,
2013-02-02 16:36:00,23.0,18.9,30.08,SW,216,2.0,2.0,84,0.00,,,0.00,WeatherCatV1.02B3,2013-02-02 21:36:00,
2013-02-02 16:41:00,23.0,18.9,30.09,ESE,107,0.0,0.0,84,0.00,,,0.00,WeatherCatV1.02B3,2013-02-02 21:41:00,
2013-02-02 16:46:00,23.1,19.0,30.08,SE,142,0.0,4.0,84,0.00,,,0.00,WeatherCatV1.02B3,2013-02-02 21:46:00,
2013-02-02 16:51:00,23.1,19.0,30.08,ESE,118,0.0,1.0,84,0.00,,,0.00,WeatherCatV1.02B3,2013-02-02 21:51:00,
2013-02-02 16:56:00,23.1,19.0,30.08,East,96,2.0,3.0,84,0.00,,,0.00,WeatherCatV1.02B3,2013-02-02 21:56:00,
2013-02-02 17:01:00,23.1,19.0,30.08,SE,125,0.0,3.0,84,0.00,,,0.00,WeatherCatV1.02B3,2013-02-02 22:01:00,
2013-02-02 17:06:00,23.1,19.0,30.08,SSE,158,0.0,3.0,84,0.00,,,0.00,WeatherCatV1.02B3,2013-02-02 22:06:00,
2013-02-02 17:11:00,23.1,19.0,30.08,SE,126,0.0,2.0,84,0.00,,,0.00,WeatherCatV1.02B3,2013-02-02 22:11:00,
2013-02-02 17:16:00,23.2,19.1,30.08,SE,130,0.0,1.0,84,0.00,,,0.00,WeatherCatV1.02B3,2013-02-02 22:16:00,
2013-02-02 17:21:00,23.2,19.1,30.08,ESE,123,0.0,2.0,84,0.00,,,0.00,WeatherCatV1.02B3,2013-02-02 22:21:00,
2013-02-02 17:26:00,23.2,19.1,30.08,ESE,117,2.0,3.0,84,0.00,,,0.00,WeatherCatV1.02B3,2013-02-02 22:26:00,
2013-02-02 17:31:00,23.2,19.1,30.08,SE,142,0.0,3.0,84,0.00,,,0.00,WeatherCatV1.02B3,2013-02-02 22:31:00,
2013-02-02 17:36:00,23.2,19.1,30.08,ESE,122,0.0,0.0,84,0.00,,,0.00,WeatherCatV1.02B3,2013-02-02 22:36:00,
2013-02-02 17:41:00,23.3,19.2,30.08,SE,132,0.0,3.0,84,0.00,,,0.00,WeatherCatV1.02B3,2013-02-02 22:41:00,
2013-02-02 17:46:00,23.3,19.2,30.08,SE,132,2.0,2.0,84,0.00,,,0.00,WeatherCatV1.02B3,2013-02-02 22:46:00,
2013-02-02 17:51:00,23.3,19.2,30.08,SE,126,0.0,3.0,84,0.00,,,0.00,WeatherCatV1.02B3,2013-02-02 22:51:00,
2013-02-02 17:56:00,23.3,19.2,30.08,SE,126,0.0,2.0,84,0.00,,,0.00,WeatherCatV1.02B3,2013-02-02 22:56:00,
2013-02-02 18:01:00,23.3,19.2,30.08,SE,128,0.0,0.0,84,0.00,,,0.00,WeatherCatV1.02B3,2013-02-02 23:01:00,
2013-02-02 18:06:00,23.4,19.3,30.08,SE,128,1.0,2.0,84,0.00,,,0.00,WeatherCatV1.02B3,2013-02-02 23:06:00,
2013-02-02 18:11:00,23.4,19.3,30.08,ESE,113,0.0,3.0,84,0.00,,,0.00,WeatherCatV1.02B3,2013-02-02 23:11:00,
2013-02-02 18:16:00,23.4,19.3,30.08,ESE,114,1.0,2.0,84,0.00,,,0.00,WeatherCatV1.02B3,2013-02-02 23:16:00,
2013-02-02 18:21:00,23.5,19.7,30.08,SE,134,0.0,2.0,85,0.00,,,0.00,WeatherCatV1.02B3,2013-02-02 23:21:00,
2013-02-02 18:26:00,23.5,19.7,30.08,ESE,122,0.0,2.0,85,0.00,,,0.00,WeatherCatV1.02B3,2013-02-02 23:26:00,
2013-02-02 18:31:00,23.5,19.7,30.08,South,176,0.0,0.0,85,0.00,,,0.00,WeatherCatV1.02B3,2013-02-02 23:31:00,
2013-02-02 18:36:00,23.5,19.7,30.08,SSE,159,0.0,4.0,85,0.00,,,0.00,WeatherCatV1.02B3,2013-02-02 23:36:00,
2013-02-02 18:41:00,23.5,19.7,30.08,SSW,203,0.0,0.0,85,0.00,,,0.00,WeatherCatV1.02B3,2013-02-02 23:41:00,
2013-02-02 18:46:00,23.6,19.8,30.08,ESE,122,0.0,0.0,85,0.00,,,0.00,WeatherCatV1.02B3,2013-02-02 23:46:00,
2013-02-02 18:51:00,23.6,19.8,30.08,SW,218,0.0,0.0,85,0.00,,,0.00,WeatherCatV1.02B3,2013-02-02 23:51:00,
2013-02-02 18:56:00,23.5,19.9,30.08,East,96,0.0,0.0,86,0.00,,,0.00,WeatherCatV1.02B3,2013-02-02 23:56:00,
2013-02-02 19:01:00,23.6,20.0,30.08,East,98,0.0,0.0,86,0.00,,,0.00,WeatherCatV1.02B3,2013-02-03 00:01:00,
2013-02-02 19:06:00,23.6,20.0,30.08,SSW,201,0.0,0.0,86,0.00,,,0.00,WeatherCatV1.02B3,2013-02-03 00:06:00,
2013-02-02 19:11:00,23.6,20.0,30.09,South,186,0.0,0.0,86,0.00,,,0.00,WeatherCatV1.02B3,2013-02-03 00:11:00,
2013-02-02 19:16:00,23.6,20.0,30.08,South,186,0.0,0.0,86,0.00,,,0.00,WeatherCatV1.02B3,2013-02-03 00:16:00,
2013-02-02 19:21:00,23.6,20.0,30.08,SSW,196,0.0,2.0,86,0.00,,,0.00,WeatherCatV1.02B3,2013-02-03 00:21:00,
2013-02-02 19:26:00,23.6,20.3,30.08,SSW,196,0.0,0.0,87,0.00,,,0.00,WeatherCatV1.02B3,2013-02-03 00:26:00,
2013-02-02 19:31:00,23.6,20.3,30.09,SE,133,0.0,3.0,87,0.00,,,0.00,WeatherCatV1.02B3,2013-02-03 00:31:00,
2013-02-02 19:36:00,23.6,20.3,30.09,SSW,209,1.0,3.0,87,0.00,,,0.00,WeatherCatV1.02B3,2013-02-03 00:36:00,
2013-02-02 19:41:00,23.6,20.3,30.09,SSW,194,0.0,0.0,87,0.00,,,0.00,WeatherCatV1.02B3,2013-02-03 00:41:00,
2013-02-02 19:46:00,23.6,20.3,30.09,SSW,194,0.0,2.0,87,0.00,,,0.00,WeatherCatV1.02B3,2013-02-03 00:46:00,
2013-02-02 19:51:00,23.6,20.3,30.09,SSW,194,0.0,0.0,87,0.00,,,0.00,WeatherCatV1.02B3,2013-02-03 00:51:00,
2013-02-02 19:56:00,23.6,20.3,30.09,SSW,194,0.0,2.0,87,0.00,,,0.00,WeatherCatV1.02B3,2013-02-03 00:56:00,
2013-02-02 20:01:00,23.6,20.3,30.09,SSW,194,2.0,2.0,87,0.00,,,0.00,WeatherCatV1.02B3,2013-02-03 01:01:00,
2013-02-02 20:06:00,23.6,20.6,30.09,SSW,194,0.0,0.0,88,0.00,,,0.00,WeatherCatV1.02B3,2013-02-03 01:06:00,
2013-02-02 20:11:00,23.6,20.6,30.09,SSW,194,0.0,0.0,88,0.00,,,0.00,WeatherCatV1.02B3,2013-02-03 01:11:00,
2013-02-02 20:16:00,23.7,20.7,30.09,SW,228,0.0,1.0,88,0.00,,,0.00,WeatherCatV1.02B3,2013-02-03 01:16:00,
2013-02-02 20:21:00,23.6,20.6,30.09,South,185,0.0,0.0,88,0.00,,,0.00,WeatherCatV1.02B3,2013-02-03 01:21:00,
2013-02-02 20:26:00,23.6,20.6,30.09,South,185,0.0,0.0,88,0.00,,,0.00,WeatherCatV1.02B3,2013-02-03 01:26:00,
2013-02-02 20:31:00,23.6,20.6,30.09,South,184,0.0,0.0,88,0.00,,,0.00,WeatherCatV1.02B3,2013-02-03 01:31:00,
2013-02-02 20:36:00,23.7,20.7,30.09,South,185,0.0,0.0,88,0.00,,,0.00,WeatherCatV1.02B3,2013-02-03 01:36:00,
2013-02-02 20:41:00,23.7,20.7,30.09,WNW,300,0.0,0.0,88,0.00,,,0.00,WeatherCatV1.02B3,2013-02-03 01:41:00,
2013-02-02 20:46:00,23.7,20.7,30.09,WNW,300,0.0,0.0,88,0.00,,,0.00,WeatherCatV1.02B3,2013-02-03 01:46:00,
2013-02-02 20:51:00,23.7,20.7,30.09,SW,234,0.0,0.0,88,0.00,,,0.00,WeatherCatV1.02B3,2013-02-03 01:51:00,
2013-02-02 20:56:00,23.7,20.7,30.09,SW,234,0.0,0.0,88,0.00,,,0.00,WeatherCatV1.02B3,2013-02-03 01:56:00,
2013-02-02 21:01:00,23.8,21.0,30.09,SW,234,0.0,0.0,89,0.00,,,0.00,WeatherCatV1.02B3,2013-02-03 02:01:00,
2013-02-02 21:06:00,23.8,21.0,30.09,SW,234,0.0,0.0,89,0.00,,,0.00,WeatherCatV1.02B3,2013-02-03 02:06:00,
2013-02-02 21:11:00,23.9,21.1,30.09,SW,235,0.0,0.0,89,0.00,,,0.00,WeatherCatV1.02B3,2013-02-03 02:11:00,
2013-02-02 21:16:00,24.0,21.2,30.09,NW,320,0.0,0.0,89,0.00,,,0.00,WeatherCatV1.02B3,2013-02-03 02:16:00,
2013-02-02 21:21:00,24.1,21.3,30.09,NNW,329,0.0,2.0,89,0.00,,,0.00,WeatherCatV1.02B3,2013-02-03 02:21:00,
2013-02-02 21:26:00,24.1,21.3,30.09,ENE,64,0.0,0.0,89,0.00,,,0.00,WeatherCatV1.02B3,2013-02-03 02:26:00,
2013-02-02 21:31:00,24.1,21.3,30.09,NE,37,0.0,1.0,89,0.00,,,0.00,WeatherCatV1.02B3,2013-02-03 02:31:00,
2013-02-02 21:36:00,24.2,21.4,30.09,NE,37,0.0,0.0,89,0.00,,,0.00,WeatherCatV1.02B3,2013-02-03 02:36:00,
2013-02-02 21:41:00,24.2,21.4,30.09,NNW,328,0.0,0.0,89,0.00,,,0.00,WeatherCatV1.02B3,2013-02-03 02:41:00,
2013-02-02 21:46:00,24.2,21.4,30.09,North,11,0.0,0.0,89,0.00,,,0.00,WeatherCatV1.02B3,2013-02-03 02:46:00,
2013-02-02 21:51:00,24.2,21.4,30.09,North,11,0.0,0.0,89,0.00,,,0.00,WeatherCatV1.02B3,2013-02-03 02:51:00,
2013-02-02 21:56:00,24.1,21.3,30.09,NNW,345,0.0,0.0,89,0.00,,,0.00,WeatherCatV1.02B3,2013-02-03 02:56:00,
2013-02-02 22:01:00,24.1,21.3,30.09,NNW,345,0.0,0.0,89,0.00,,,0.00,WeatherCatV1.02B3,2013-02-03 03:01:00,
2013-02-02 22:06:00,24.1,21.3,30.09,North,355,0.0,1.0,89,0.00,,,0.00,WeatherCatV1.02B3,2013-02-03 03:06:00,
2013-02-02 22:11:00,24.0,21.2,30.09,North,355,0.0,0.0,89,0.00,,,0.00,WeatherCatV1.02B3,2013-02-03 03:11:00,
2013-02-02 22:16:00,23.9,21.1,30.09,North,355,0.0,0.0,89,0.00,,,0.00,WeatherCatV1.02B3,2013-02-03 03:16:00,
2013-02-02 22:21:00,24.0,21.2,30.09,North,355,0.0,0.0,89,0.00,,,0.00,WeatherCatV1.02B3,2013-02-03 03:21:00,
2013-02-02 22:26:00,23.9,21.1,30.09,North,355,0.0,0.0,89,0.00,,,0.00,WeatherCatV1.02B3,2013-02-03 03:26:00,
2013-02-02 22:31:00,23.8,21.0,30.09,North,355,0.0,0.0,89,0.00,,,0.00,WeatherCatV1.02B3,2013-02-03 03:31:00,
2013-02-02 22:36:00,23.7,20.9,30.09,North,355,0.0,0.0,89,0.00,,,0.00,WeatherCatV1.02B3,2013-02-03 03:36:00,
2013-02-02 22:41:00,23.7,20.9,30.09,North,355,0.0,0.0,89,0.00,,,0.00,WeatherCatV1.02B3,2013-02-03 03:41:00,
2013-02-02 22:46:00,23.6,20.8,30.08,North,355,0.0,0.0,89,0.00,,,0.00,WeatherCatV1.02B3,2013-02-03 03:46:00,
2013-02-02 22:51:00,23.6,20.8,30.09,North,355,0.0,0.0,89,0.00,,,0.00,WeatherCatV1.02B3,2013-02-03 03:51:00,
2013-02-02 22:56:00,23.6,20.8,30.08,North,355,0.0,0.0,89,0.00,,,0.00,WeatherCatV1.02B3,2013-02-03 03:56:00,
2013-02-02 23:01:00,23.6,20.8,30.08,North,355,0.0,0.0,89,0.00,,,0.00,WeatherCatV1.02B3,2013-02-03 04:01:00,
2013-02-02 23:06:00,23.6,20.8,30.08,North,355,0.0,0.0,89,0.00,,,0.00,WeatherCatV1.02B3,2013-02-03 04:06:00,
2013-02-02 23:11:00,23.6,20.8,30.08,North,355,0.0,0.0,89,0.00,,,0.00,WeatherCatV1.02B3,2013-02-03 04:11:00,
2013-02-02 23:16:00,23.6,20.8,30.08,North,355,0.0,0.0,89,0.00,,,0.00,WeatherCatV1.02B3,2013-02-03 04:16:00,
2013-02-02 23:21:00,23.6,20.8,30.08,North,355,0.0,0.0,89,0.00,,,0.00,WeatherCatV1.02B3,2013-02-03 04:21:00,
2013-02-02 23:26:00,23.6,20.8,30.08,North,355,0.0,0.0,89,0.00,,,0.00,WeatherCatV1.02B3,2013-02-03 04:26:00,
2013-02-02 23:31:00,23.6,20.8,30.08,North,355,0.0,0.0,89,0.00,,,0.00,WeatherCatV1.02B3,2013-02-03 04:31:00,
2013-02-02 23:36:00,23.6,20.8,30.08,North,355,0.0,0.0,89,0.00,,,0.00,WeatherCatV1.02B3,2013-02-03 04:36:00,
2013-02-02 23:41:00,23.6,20.8,30.08,North,355,0.0,0.0,89,0.00,,,0.00,WeatherCatV1.02B3,2013-02-03 04:41:00,
2013-02-02 23:46:00,23.6,20.8,30.08,NE,47,0.0,0.0,89,0.00,,,0.00,WeatherCatV1.02B3,2013-02-03 04:46:00,
2013-02-02 23:51:00,23.6,20.8,30.08,NNE,32,0.0,0.0,89,0.00,,,0.00,WeatherCatV1.02B3,2013-02-03 04:51:00,
2013-02-02 23:56:00,23.7,20.9,30.08,NNE,13,0.0,0.0,89,0.00,,,0.00,WeatherCatV1.02B3,2013-02-03 04:56:00,